| time (UTC) | temp F | wind direction | speed MPH | gust MPH | rain 1hr in | rain 24hr in | rain mn in | humidity % | barometer mb |
| 20260831100530 | 68 | 215 | 9.0 | 13.0 | 0.04 | 0.07 | 0.00 | 82 | 1012.0 |
| 20260831095530 | 67 | 227 | 10.0 | 15.0 | 0.04 | 0.06 | 0.00 | 83 | 1012.0 |
| 20260831094531 | 66 | 245 | 10.0 | 13.0 | 0.04 | 0.05 | 0.00 | 83 | 1012.0 |
| 20260831093530 | 66 | 241 | 9.0 | 13.0 | 0.03 | 0.05 | 0.00 | 84 | 1012.0 |
| 20260831091532 | 64 | 213 | 9.0 | 14.0 | 0.03 | 0.03 | 0.00 | 86 | 1012.0 |
| 20260831090531 | 63 | 213 | 9.0 | 17.0 | 0.03 | 0.03 | 0.00 | 86 | 1012.3 |
| 20260831085528 | 62 | 216 | 7.0 | 16.0 | 0.02 | 0.02 | 0.00 | 85 | 1012.3 |
| 20260831084533 | 62 | 222 | 10.0 | 16.0 | 0.02 | 0.02 | 0.00 | 85 | 1012.3 |
| 20260831083530 | 62 | 220 | 11.0 | 16.0 | 0.01 | 0.01 | 0.00 | 84 | 1012.3 |
| 20260831082529 | 62 | 222 | 10.0 | 15.0 | 0.01 | 0.01 | 0.00 | 84 | 1012.3 |
| 20260831081533 | 62 | 242 | 11.0 | 17.0 | 0.00 | 0.00 | 0.00 | 84 | 1012.3 |
| 20260831075528 | 62 | 235 | 11.0 | 12.0 | 0.00 | 0.00 | 0.00 | 82 | 1011.6 |
| 20260831074532 | 62 | 229 | 8.0 | 11.0 | 0.00 | 0.00 | 0.00 | 81 | 1011.6 |
| 20260831073529 | 62 | 221 | 9.0 | 11.0 | 0.00 | 0.00 | 0.00 | 80 | 1011.6 |
| 20260831072528 | 63 | 238 | 9.0 | 12.0 | 0.00 | 0.00 | 0.00 | 79 | 1011.6 |
| 20260831071533 | 63 | 175 | 7.0 | 12.0 | 0.00 | 0.00 | 0.00 | 78 | 1011.6 |
| 20260831070531 | 64 | 188 | 8.0 | 10.0 | 0.00 | 0.00 | 0.00 | 76 | 1011.5 |
| 20260831065529 | 64 | 178 | 10.0 | 12.0 | 0.00 | 0.00 | 0.00 | 75 | 1011.5 |
| 20260831063529 | 64 | 139 | 5.0 | 7.0 | 0.00 | 0.00 | 0.00 | 75 | 1011.5 |
| 20260831062530 | 64 | 135 | 4.0 | 6.0 | 0.00 | 0.00 | 0.00 | 75 | 1011.5 |
| 20260831061532 | 64 | 135 | 4.0 | 7.0 | 0.00 | 0.00 | 0.00 | 75 | 1011.5 |
| 20260831060529 | 64 | 131 | 4.0 | 5.0 | 0.00 | 0.00 | 0.00 | 75 | 1011.8 |
| 20260831055528 | 64 | 136 | 5.0 | 5.0 | 0.00 | 0.00 | 0.00 | 75 | 1011.8 |
| 20260831053529 | 64 | 67 | 4.0 | 5.0 | 0.00 | 0.00 | 0.00 | 75 | 1011.8 |
| 20260831052529 | 64 | 72 | 2.0 | 5.0 | 0.00 | 0.00 | 0.00 | 75 | 1011.8 |
| 20260831051531 | 64 | 128 | 1.0 | 5.0 | 0.00 | 0.00 | 0.00 | 75 | 1011.8 |
| 20260831050531 | 64 | 147 | 3.0 | 5.0 | 0.00 | 0.00 | 0.00 | 75 | 1012.0 |
| 20260831045529 | 63 | 139 | 2.0 | 5.0 | 0.00 | 0.00 | 0.00 | 75 | 1012.0 |
| 20260831044532 | 63 | 140 | 1.0 | 5.0 | 0.00 | 0.00 | 0.00 | 75 | 1012.0 |
| 20260831042530 | 63 | 143 | 2.0 | 6.0 | 0.00 | 0.00 | 0.00 | 75 | 1012.0 |
| 20260831040530 | 63 | 135 | 4.0 | 6.0 | 0.00 | 0.00 | 0.00 | 75 | 1012.1 |
| 20260831035530 | 63 | 144 | 4.0 | 7.0 | 0.00 | 0.00 | 0.00 | 75 | 1012.1 |
| 20260831034532 | 63 | 104 | 2.0 | 7.0 | 0.00 | 0.00 | 0.00 | 75 | 1012.1 |
| 20260831033528 | 63 | 106 | 2.0 | 6.0 | 0.00 | 0.01 | 0.00 | 75 | 1012.1 |
| 20260831032528 | 64 | 90 | 3.0 | 7.0 | 0.00 | 0.01 | 0.00 | 74 | 1012.1 |
| 20260831031531 | 64 | 120 | 3.0 | 7.0 | 0.00 | 0.01 | 0.00 | 74 | 1012.1 |
| 20260831030529 | 64 | 102 | 3.0 | 8.0 | 0.00 | 0.01 | 0.00 | 74 | 1012.4 |
| 20260831025528 | 64 | 104 | 4.0 | 7.0 | 0.00 | 0.01 | 0.00 | 74 | 1012.4 |
| 20260831024530 | 64 | 197 | 4.0 | 8.0 | 0.00 | 0.01 | 0.00 | 73 | 1012.4 |
| 20260831023532 | 64 | 188 | 4.0 | 7.0 | 0.00 | 0.01 | 0.00 | 73 | 1012.4 |
| 20260831022527 | 64 | 180 | 2.0 | 8.0 | 0.00 | 0.01 | 0.00 | 73 | 1012.4 |
| 20260831021531 | 64 | 176 | 4.0 | 7.0 | 0.00 | 0.01 | 0.00 | 73 | 1012.4 |
| 20260831020529 | 64 | 177 | 4.0 | 7.0 | 0.00 | 0.01 | 0.00 | 73 | 1013.0 |
| 20260831015529 | 65 | 168 | 5.0 | 7.0 | 0.00 | 0.01 | 0.00 | 72 | 1013.0 |
| 20260831013529 | 65 | 182 | 6.0 | 8.0 | 0.00 | 0.01 | 0.00 | 72 | 1013.0 |
| 20260831011532 | 65 | 176 | 5.0 | 8.0 | 0.00 | 0.01 | 0.00 | 72 | 1013.0 |
| 20260831004529 | 66 | 190 | 5.0 | 6.0 | 0.00 | 0.01 | 0.00 | 71 | 1013.1 |
| 20260831003531 | 66 | 204 | 3.0 | 5.0 | 0.00 | 0.01 | 0.00 | 71 | 1013.1 |
| 20260831002529 | 67 | 190 | 3.0 | 5.0 | 0.00 | 0.01 | 0.00 | 70 | 1013.1 |
| 20260831001532 | 67 | 208 | 4.0 | 5.0 | 0.00 | 0.01 | 0.00 | 70 | 1013.1 |
| 20260831000528 | 67 | 190 | 2.0 | 6.0 | 0.00 | 0.01 | 0.00 | 70 | 1013.0 |
| 20260830235528 | 67 | 206 | 3.0 | 6.0 | 0.00 | 0.01 | 0.00 | 69 | 1013.0 |
| 20260830234530 | 67 | 269 | 3.0 | 7.0 | 0.00 | 0.01 | 0.00 | 69 | 1013.0 |
| 20260830233528 | 68 | 266 | 3.0 | 7.0 | 0.00 | 0.01 | 0.00 | 69 | 1013.0 |
| 20260830232530 | 68 | 267 | 4.0 | 6.0 | 0.00 | 0.01 | 0.00 | 68 | 1013.0 |
| 20260830231533 | 68 | 240 | 3.0 | 6.0 | 0.00 | 0.01 | 0.00 | 68 | 1013.0 |
| 20260830230533 | 68 | 247 | 4.0 | 6.0 | 0.00 | 0.01 | 0.00 | 67 | 1013.1 |
| 20260830225527 | 68 | 245 | 6.0 | 7.0 | 0.00 | 0.01 | 0.00 | 67 | 1013.1 |
| 20260830222529 | 69 | 220 | 7.0 | 7.0 | 0.00 | 0.01 | 0.00 | 66 | 1013.1 |
| 20260830221531 | 69 | 177 | 6.0 | 7.0 | 0.00 | 0.01 | 0.00 | 66 | 1013.1 |
| 20260830220529 | 69 | 177 | 5.0 | 6.0 | 0.00 | 0.01 | 0.00 | 66 | 1013.0 |
| 20260830214530 | 69 | 166 | 6.0 | 7.0 | 0.00 | 0.01 | 0.00 | 66 | 1013.0 |
| 20260830213531 | 69 | 152 | 5.0 | 7.0 | 0.00 | 0.01 | 0.00 | 65 | 1013.0 |
| 20260830212528 | 69 | 150 | 4.0 | 7.0 | 0.00 | 0.01 | 0.00 | 65 | 1013.0 |
| 20260830211531 | 69 | 196 | 6.0 | 8.0 | 0.00 | 0.01 | 0.00 | 65 | 1013.0 |
| 20260830210529 | 69 | 196 | 6.0 | 11.0 | 0.00 | 0.01 | 0.00 | 65 | 1012.9 |
| 20260830205530 | 69 | 195 | 6.0 | 12.0 | 0.00 | 0.01 | 0.00 | 64 | 1012.9 |
| 20260830204538 | 69 | 239 | 4.0 | 12.0 | 0.00 | 0.01 | 0.00 | 64 | 1012.9 |
| 20260830203530 | 70 | 231 | 5.0 | 11.0 | 0.00 | 0.01 | 0.00 | 63 | 1012.9 |
| 20260830202528 | 70 | 227 | 4.0 | 11.0 | 0.00 | 0.01 | 0.00 | 62 | 1012.9 |
| 20260830201531 | 70 | 247 | 4.0 | 11.0 | 0.00 | 0.01 | 0.00 | 62 | 1012.9 |
| 20260830200529 | 71 | 260 | 4.0 | 15.0 | 0.00 | 0.01 | 0.00 | 62 | 1012.7 |
| 20260830195529 | 71 | 256 | 4.0 | 14.0 | 0.00 | 0.01 | 0.00 | 61 | 1012.7 |
| 20260830194531 | 71 | 260 | 4.0 | 14.0 | 0.00 | 0.01 | 0.00 | 61 | 1012.7 |
| 20260830193532 | 71 | 252 | 6.0 | 16.0 | 0.00 | 0.01 | 0.00 | 60 | 1012.7 |
| 20260830192529 | 71 | 259 | 6.0 | 15.0 | 0.00 | 0.01 | 0.00 | 60 | 1012.7 |
| 20260830191532 | 72 | 293 | 9.0 | 14.0 | 0.00 | 0.01 | 0.00 | 60 | 1012.7 |
| 20260830185536 | 72 | 289 | 8.0 | 22.0 | 0.00 | 0.01 | 0.00 | 59 | 1012.0 |
| 20260830184531 | 72 | 271 | 10.0 | 21.0 | 0.00 | 0.01 | 0.00 | 58 | 1012.0 |
| 20260830183530 | 73 | 286 | 10.0 | 21.0 | 0.00 | 0.01 | 0.00 | 58 | 1012.0 |
| 20260830182529 | 73 | 276 | 9.0 | 23.0 | 0.00 | 0.01 | 0.00 | 57 | 1012.0 |
| 20260830181532 | 73 | 295 | 12.0 | 22.0 | 0.00 | 0.01 | 0.00 | 57 | 1012.0 |
| 20260830180530 | 73 | 280 | 12.0 | 20.0 | 0.00 | 0.01 | 0.00 | 56 | 1011.4 |
| 20260830175529 | 74 | 294 | 11.0 | 20.0 | 0.00 | 0.01 | 0.00 | 55 | 1011.4 |
| 20260830173530 | 74 | 286 | 12.0 | 19.0 | 0.00 | 0.01 | 0.00 | 54 | 1011.4 |
| 20260830172529 | 75 | 282 | 12.0 | 19.0 | 0.00 | 0.01 | 0.00 | 53 | 1011.4 |
| 20260830170531 | 75 | 294 | 15.0 | 24.0 | 0.00 | 0.01 | 0.00 | 52 | 1010.9 |
| 20260830165529 | 76 | 289 | 14.0 | 24.0 | 0.00 | 0.01 | 0.00 | 51 | 1010.9 |
| 20260830163535 | 77 | 280 | 13.0 | 22.0 | 0.00 | 0.01 | 0.00 | 50 | 1010.9 |
| 20260830162529 | 77 | 271 | 14.0 | 22.0 | 0.00 | 0.01 | 0.00 | 50 | 1010.9 |
| 20260830161533 | 78 | 259 | 17.0 | 23.0 | 0.00 | 0.01 | 0.00 | 50 | 1010.9 |
| 20260830160531 | 78 | 268 | 15.0 | 29.0 | 0.00 | 0.01 | 0.00 | 49 | 1010.7 |
| 20260830155529 | 78 | 264 | 17.0 | 32.0 | 0.00 | 0.01 | 0.00 | 49 | 1010.7 |
| 20260830154532 | 79 | 254 | 14.0 | 26.0 | 0.00 | 0.01 | 0.00 | 48 | 1010.7 |
| 20260830152528 | 80 | 265 | 16.0 | 26.0 | 0.00 | 0.01 | 0.00 | 47 | 1010.7 |
| 20260830151533 | 80 | 256 | 20.0 | 29.0 | 0.00 | 0.01 | 0.00 | 47 | 1010.7 |
| 20260830150528 | 80 | 264 | 18.0 | 31.0 | 0.00 | 0.01 | 0.00 | 47 | 1010.5 |
| 20260830145531 | 80 | 251 | 19.0 | 32.0 | 0.00 | 0.01 | 0.00 | 45 | 1010.5 |
| 20260830144533 | 80 | 233 | 20.0 | 34.0 | 0.00 | 0.01 | 0.00 | 45 | 1010.5 |
| 20260830143530 | 81 | 231 | 22.0 | 34.0 | 0.00 | 0.01 | 0.00 | 46 | 1010.5 |
| 20260830141530 | 81 | 221 | 22.0 | 36.0 | 0.00 | 0.01 | 0.00 | 47 | 1010.5 |
| 20260830140529 | 80 | 220 | 24.0 | 37.0 | 0.00 | 0.01 | 0.00 | 47 | 1010.4 |
| 20260830135529 | 79 | 227 | 21.0 | 38.0 | 0.00 | 0.01 | 0.00 | 48 | 1010.4 |
| 20260830133529 | 80 | 231 | 19.0 | 35.0 | 0.00 | 0.01 | 0.00 | 50 | 1010.4 |
| 20260830131533 | 81 | 239 | 20.0 | 34.0 | 0.00 | 0.01 | 0.00 | 50 | 1010.4 |
| 20260830130530 | 81 | 224 | 20.0 | 34.0 | 0.00 | 0.01 | 0.00 | 51 | 1010.6 |
| 20260830125529 | 80 | 224 | 20.0 | 33.0 | 0.00 | 0.01 | 0.00 | 52 | 1010.6 |
| 20260830124532 | 80 | 219 | 20.0 | 36.0 | 0.00 | 0.01 | 0.00 | 52 | 1010.6 |
| 20260830122529 | 79 | 210 | 21.0 | 38.0 | 0.00 | 0.01 | 0.00 | 54 | 1010.6 |
| 20260830121533 | 81 | 226 | 22.0 | 33.0 | 0.00 | 0.01 | 0.00 | 53 | 1010.6 |
| 20260830120530 | 80 | 240 | 22.0 | 37.0 | 0.00 | 0.01 | 0.00 | 53 | 1010.5 |
| 20260830115530 | 82 | 236 | 21.0 | 36.0 | 0.00 | 0.01 | 0.00 | 51 | 1010.5 |
| 20260830113530 | 80 | 217 | 19.0 | 33.0 | 0.00 | 0.01 | 0.00 | 52 | 1010.5 |
| 20260830112529 | 80 | 221 | 20.0 | 36.0 | 0.00 | 0.01 | 0.00 | 53 | 1010.5 |
| 20260830111532 | 81 | 254 | 24.0 | 38.0 | 0.00 | 0.01 | 0.00 | 52 | 1010.5 |
| 20260830110529 | 80 | 250 | 22.0 | 34.0 | 0.00 | 0.01 | 0.00 | 54 | 1010.2 |
| 20260830105617 | 79 | 241 | 22.0 | 35.0 | 0.00 | 0.01 | 0.00 | 54 | 1010.2 |
| 20260830103626 | 79 | 220 | 20.0 | 33.0 | 0.00 | 0.01 | 0.00 | 55 | 1010.2 |